TimePST,TemperatureF,Dew PointF,Humidity,Sea Level PressureIn,VisibilityMPH,Wind Direction,Wind SpeedMPH,Gust SpeedMPH,PrecipitationIn,Events,Conditions,WindDirDegrees,DateUTC
12:55 AM,23.0,21.0,92,30.39,9.0,Calm,Calm,-,N/A,,Clear,0,2013-12-01 08:55:00
1:55 AM,23.0,19.9,88,30.39,10.0,Calm,Calm,-,N/A,,Clear,0,2013-12-01 09:55:00
2:55 AM,23.0,19.9,88,30.39,4.0,Calm,Calm,-,N/A,,Clear,0,2013-12-01 10:55:00
3:55 AM,21.9,19.0,89,30.40,8.0,Calm,Calm,-,N/A,,Clear,0,2013-12-01 11:55:00
4:55 AM,21.9,19.0,89,30.43,9.0,Calm,Calm,-,N/A,,Clear,0,2013-12-01 12:55:00
5:55 AM,25.0,21.9,88,30.45,7.0,Calm,Calm,-,N/A,,Mostly Cloudy,0,2013-12-01 13:55:00
6:55 AM,25.0,21.9,88,30.45,7.0,Calm,Calm,-,N/A,,Mostly Cloudy,0,2013-12-01 14:55:00
7:55 AM,26.1,24.1,92,30.45,9.0,Calm,Calm,-,N/A,,Scattered Clouds,0,2013-12-01 15:55:00
8:55 AM,30.9,27.0,85,30.46,10.0,SSE,3.5,-,N/A,,Clear,150,2013-12-01 16:55:00
9:55 AM,33.1,28.9,85,30.47,5.0,Calm,Calm,-,N/A,,Clear,0,2013-12-01 17:55:00
10:55 AM,41.0,30.9,67,30.45,10.0,Variable,3.5,-,N/A,,Clear,0,2013-12-01 18:55:00
11:55 AM,45.0,32.0,60,30.40,10.0,WNW,3.5,-,N/A,,Clear,300,2013-12-01 19:55:00
12:55 PM,46.9,33.1,59,30.38,10.0,Calm,Calm,-,N/A,,Clear,0,2013-12-01 20:55:00
1:55 PM,53.1,35.1,50,30.34,10.0,Calm,Calm,-,N/A,,Clear,0,2013-12-01 21:55:00
2:55 PM,55.0,34.0,45,30.32,10.0,West,6.9,-,N/A,,Clear,280,2013-12-01 22:55:00
3:55 PM,50.0,33.1,52,30.31,10.0,South,3.5,-,N/A,,Clear,180,2013-12-01 23:55:00
4:55 PM,43.0,32.0,65,30.32,10.0,ESE,4.6,-,N/A,,Clear,110,2013-12-02 00:55:00
5:55 PM,41.0,32.0,70,30.31,10.0,NNE,3.5,-,N/A,,Clear,20,2013-12-02 01:55:00
6:55 PM,36.0,30.9,82,30.31,9.0,Calm,Calm,-,N/A,,Clear,0,2013-12-02 02:55:00
7:55 PM,36.0,30.0,79,30.30,10.0,Calm,Calm,-,N/A,,Clear,0,2013-12-02 03:55:00
8:55 PM,34.0,28.9,82,30.28,10.0,Calm,Calm,-,N/A,,Clear,0,2013-12-02 04:55:00
9:55 PM,30.9,27.0,85,30.29,9.0,Calm,Calm,-,N/A,,Clear,0,2013-12-02 05:55:00
10:55 PM,28.9,27.0,92,30.26,6.0,North,3.5,-,N/A,,Clear,360,2013-12-02 06:55:00
11:55 PM,26.1,23.0,88,30.24,7.0,Calm,Calm,-,N/A,,Clear,0,2013-12-02 07:55:00